Location: Newark
(45.9456°N, 15.4064°E)
Time: 02:26:42
(UTC+00:00)

Vanguard 3 - Pass Details

Date: 31 January 2020
Orbit: 508 x 3263 km, 33.3° (Epoch: 25 February)

Event Time Altitude Azimuth Distance (km) Brightness Sun altitude
Rises 17:13:45 0° 259° (W) 6,874 14.0 -12.7°
Reaches altitude 10° 17:18:14 10° 255° (WSW) 6,035 13.0 -13.5°
Maximum altitude 17:37:05 54° 186° (S) 3,600 10.4 -16.7°
Enters shadow 17:51:40 14° 117° (ESE) 4,933 10.6 -19.2°
Drops below altitude 10° 17:52:58 10° 115° (ESE) 5,175 - -19.5°
Sets 17:56:28 0° 111° (ESE) 5,880 - -20.1°
